Regional Weather Roundup
Issued by NWS Wakefield, VA

Home | Current Version | Previous Version | Text Only | Print | Product List | Glossary Off
Versions: 1 2 3 4 5 6 7 8 9 10 11 12 13 14 15 16 17 18 19 20 21 22 23 24 25 26 27

000
ASUS41 KAKQ 240310
RWRAKQ

REGIONAL WEATHER ROUNDUP
NATIONAL WEATHER SERVICE WAKEFIELD VA
1100 PM EDT WED APR 23 2014

Note: "fair" indicates few or no clouds below 12,000 feet with no
significant weather and/or obstructions to visibility. * = Denotes
station may not report precipitation (e.g., rain,snow,etc.),
thunder or fog.

VAZ042-051-052>054-056-240400-
NORTHERN VIRGINIA

CITY           SKY/WX    TMP DP  RH WIND       PRES   REMARKS
WASH NATIONAL  CLEAR     50  31  48 NW13      30.00R
DULLES         CLEAR     48  28  46 NW14G22   29.99S
FORT BELVOIR   CLEAR     50  33  50 NW6       30.00R
QUANTICO       CLEAR     52  30  43 N16G22    30.01R
FREDERICKSBRG* CLEAR     54  32  43 N6        29.99R
STAFFORD*      CLEAR     50  34  53 NW8       30.03R
WARRENTON      CLEAR     49  37  63 NW10      30.00R
CULPEPER*      CLEAR     54  28  37 E3        30.02R
MANASSAS*      CLEAR     50  32  50 NW17G28   29.99S
LEESBURG*      CLEAR     48  32  53 NW22G31   30.00F
WINCHESTER     CLEAR     46  30  53 N5        30.03R
$$

VAZ048-049-060>072-079>083-240400-
CENTRAL AND SOUTH CENTRAL VIRGINIA...AND NORTH CENTRAL NORTH CAROLINA

CITY           SKY/WX    TMP DP  RH WIND       PRES   REMARKS
RICHMOND       CLEAR     52  32  46 N7        29.98R
CHESTERFIELD*  CLEAR     55  28  35 N7        29.99R
HANOVER        CLEAR     52  33  48 CALM      30.00R
TAPPAHANNOCK*  CLEAR     54  27  35 NW7       29.97R
CHARLOTTSVILLE CLEAR     52  28  39 NW9       30.00R
ORANGE*        CLEAR     52  30  43 W6        30.01R
LOUISA*        CLEAR     54  30  40 NW8       29.98S
FARMVILLE*     CLEAR     54  28  37 N6        29.98R
SOUTH HILL*    CLEAR     55  34  44 N8        30.02R
ROANOKE RAPIDS CLEAR     52  37  58 N6        29.96R
RALEIGH        CLEAR     59  31  34 NE7       29.97R
$$

VAZ088>098-240400-
SOUTHEAST VIRGINIA

CITY           SKY/WX    TMP DP  RH WIND       PRES   REMARKS
NORFOLK        CLEAR     57  37  47 N8G21     29.93R
VIRGINIA BEACH CLEAR     56  38  50 N12       29.93R
NORFOLK NAVAL  CLEAR     58  34  40 N17       29.95R
WEST POINT*    CLEAR     55  32  41 N6        29.98R
NEWPORT NEWS   CLEAR     58  33  39 N9        29.95R
LANGLEY AFB    CLEAR     55  34  44 N9        29.95R
FORT EUSTIS    CLEAR     56  37  48 N7        29.94R
WILLIAMSBURG*  CLEAR     55  37  50 N10       29.97R
FRANKLIN*      CLEAR     52  37  58 N5        29.96R
WAKEFIELD      CLEAR     54  34  46 N5        29.96R
$$

VAZ020-022-025-037-045-240400-
WESTERN AND SOUTHWEST VIRGINIA

CITY           SKY/WX    TMP DP  RH WIND       PRES   REMARKS
STAUNTON*      CLEAR     46  28  48 NW7       30.03S
HOT SPRINGS VA CLEAR     39  28  65 NW10G24   30.04R
LYNCHBURG      CLEAR     59  28  30 VRB6      30.00R
DANVILLE       CLEAR     57  31  37 N8        29.99R
MARTINSVILLE     N/A     47  34  61 CALM      30.02S
ROANOKE        CLEAR     54  28  36 N10       30.03R
BLACKSBURG     CLEAR     48  34  57 NW8       30.05R
DUBLIN*        CLEAR     50  28  43 N5        30.04R
MARION*        CLEAR     48  23  37 W6        30.07R
HILLSVILLE*    CLEAR     48  16  27 NW16      30.04F
RICHLANDS*     CLEAR     52  25  35 N3        30.06R
WISE*          CLEAR     48  23  37 N3        30.07S
ABINGDON*      CLEAR     51  25  36 SE3       30.05R
$$

MDZ021>025-VAZ099-100-240400-
SOUTHERN MARYLAND AND THE DELMARVA PENINSULA

CITY           SKY/WX    TMP DP  RH WIND       PRES   REMARKS
PATUXENT RIVER CLEAR     52  33  48 NW20G31   29.96R
BAY BRIDGE APT CLEAR     48  32  53 NW14      29.97R
LEONARDTOWN    CLEAR     50  32  50 NW8G16    29.99R
DOVER          CLEAR     47  31  53 NW16G23   29.89R
GEORGETOWN     CLEAR     50  31  48 NW13G24   29.93R
EASTON         CLEAR     50  32  50 N17       30.00
CAMBRIDGE      CLEAR     52  32  46 NW17G24   29.95R
SALISBURY      CLEAR     53  34  48 NW17G26   29.92R
OCEAN CITY     CLEAR     51  34  52 N16G29    29.90R
WALLOPS ISLAND CLEAR     53  36  52 N16G22    29.92R
ACCOMACK*      CLEAR     54  34  47 NW12G22   29.93R
$$

NCZ012>017-030>032-240400-
EASTERN NORTH CAROLINA

CITY           SKY/WX    TMP DP  RH WIND       PRES   REMARKS
ELIZABETH CITY CLEAR     55  39  54 N8        29.94R
AHOSKIE*       CLEAR     48  38  70 CALM      29.96R
EDENTON*       CLEAR     51  39  63 CALM      29.94R
CURRITUCK*     CLEAR     54  37  51 N3        29.94R
KILL DEVIL HLS CLEAR     54  42  65 N8        29.91R
MANTEO         CLEAR     56  41  57 N12G17    29.93R
CAPE HATTERAS  CLEAR     47  40  76 E3        29.94R
GOLDSBORO      CLEAR     55  40  57 CALM      29.92R
WASHINGTON     CLEAR     55  42  61 NE3       29.94R
GREENVILLE     CLEAR     52  39  62 CALM      29.97R
NEW BERN       CLEAR     51  41  68 CALM      29.93R
WILMINGTON     CLEAR     54  46  74 CALM      29.94R
$$

VAZ048-240400-
ELSEWHERE

CITY           SKY/WX    TMP DP  RH WIND       PRES   REMARKS
HARRISBURG PA  CLEAR     46  29  51 NW15      29.95R
BALTIMORE      CLEAR     45  30  55 W7        29.97R
ANNAPOLIS      CLEAR     50  32  50 NW14G21   29.97R
ANDREWS AFB    CLEAR     49  30  49 NW15      29.98R
WILMINGTON DE  PTCLDY    46  30  53 NW9       29.94R
PHILADELPHIA   PTCLDY    48  24  39 N14G26    29.92R
WILDWOOD NJ*   CLEAR     50  32  50 NW18G29   29.90R
ATLANTIC CITY  CLEAR     48  30  49 N23       29.86R
HENDERSON NC   CLEAR     55  32  41 N3        29.98R
GREENSBORO     CLEAR     57  28  33 N3        29.98R
ROCKY MOUNT    CLEAR     51  39  63 CALM      29.96R
FAYETTEVILLE   CLEAR     59  33  37 N5        29.94R
CHARLOTTE      CLEAR     62  27  26 NE10      29.97R
$$

VAZ100-240400-
MARINE

STATION/POSITION TIME  TEMP    WIND        PRES    WAVE   SWELL
                       AIR SEA DIR/SP/G            HT/PER HT/PER
                 (UTC) (F)     (DEG/KT/KT) (MB)    (FT/S) (FT/S)
44066 TX TWR #4  0300   46 44  320/ 25/ 33 1006.9R   8/ 7
CAPE MAY NJ      0300   51 59  330/ 21/ 32 1011.6R
LEWES DE         0300   51 53  310/ 26/ 31 1011.7R
15NM E FENWICK I 0300   50 47              1011.2R   4/ 5
OCEAN-CITY-INLET 0300   52 52  340/ 17/ 22 1011.8R
WACHAPREAGUE VA  0300   54 60  310/  5/ 13 1012.7S
THOMAS POINT MD  0300   49 54  310/ 14/ 16 1015.3R
GOOSES REEF MD   0300   51     350/ 21/ 27   N/A
COVE POINT MD    0300   52     350/ 32/ 36 1014.3R
SOLOMONS ISLAND  0300      55                N/A
BISHOPS HEAD MD  0300   52 58  330/ 16/ 20 1013.8R
PINEY POINT MD   0300          350/ 19/ 20   N/A
POTOMAC MD       0300   54     340/ 17/ 21 1013.6R
CAMBRIDGE MD     0300   52 58  310/ 19/ 27 1013.6R
LEWISETTA VA     0300   54 58  340/ 17/ 25 1014.4R
RAPPAHANNOCK LGT 0300          320/ 24/ 26 1013.9S
STINGRAY PT      0300   56     350/ 16/ 21 1013.8F
YORK RVR RNG VA  0300   57     350/ 19/ 23 1012.8S
YORKTOWN VA      0300   57 58  340/ 14/ 15 1013.7R
JAMESTOWN VA     0300   55      10/  6/ 10   N/A
DOMINION TERM VA 0300   58     340/  3/ 10 1013.6S
KIPTOPEKE VA     0300      56  350/ 20/ 25   N/A
CHES BAY BRIDGE  0300   57 54  320/ 18/ 21 1013.6R
CAPE HENRY VA    0300   56     330/ 18/ 21   N/A
CHESAPEAKE LGHT  0200   56     340/ 24/ 24 1013.2R
WILLOUBY STN VA  0300   57     350/ 17/ 21 1012.7R
S CRANEY ISL VA  0300          320/ 12/ 15 1013.6R
CAPE HENRY BUOY  0300      48                N/A     2/ 9
1ST LANDING BUOY 0300      49                N/A     3/ 3   2/15
64NM E OF VA BCH 0300   52 49  320/ 14/ 16 1012.2R   3/ 5   2/ 7
DUCK PIER NC     0300   54 51  350/ 11/ 12 1012.2R
44100 DUCK FRF   0300      49                N/A     3/ 5
44056 DUCK FRF   0300      50                N/A     3/ 5
OREGON INLET NC  0300   53 54  340/  6/  8 1013.4R
HATTERAS NC      0300   55 62   80/  4/  5 1014.0R
DIAMOND SHLS NC  0300   61 75   20/ 12/ 14 1013.4R   4/ 9   3/ 9
CAPE LOOKOUT NC  0200   62     320/  4/  5 1012.9R
FRYING PAN SHLS  0300   67 68   20/  8/ 10 1013.2R   2/ 8   2/ 8
$$



USA.gov is the U.S. government's official web portal to all federal, state and local government web resources and services.